Meteopurmerend
purmerend
Purmerend - Baaienwijk



My webcam  My webcam


Onweer radar Meer informatie blitzortung!


Regen radar Meer informatie rain snow radar


Bezoek onze andere website:

CandyAppleRed WebdesignWebdesign Purmerend Candy Apple Red

MeteopurmerendBlog

Template documentation
and downloads



Het weer levert geen direct gevaar op.    Er zijn geen waarschuwingen afgegeven.

15 daagse weersverwachting Trondheim (NO)

  • Overzicht
  • Per uur
  • 15 dagen
  • Extra
  • Vergelijk
  • Kaarten
  • Dagkaart
  • Meer »
  • Info
  • Statistieken
  • Directe link
    Temp 6h Neerslag Wind  
 03:42     22:52    Daglengte: 19:10 Vandaag
08:00
 
1
14:00
15°
 
4
20:00
10°
 
5
 03:39     22:55    Daglengte: 19:16 Morgen
02:00
 
3
08:00
 
3
14:00
 
5
20:00
11.6 mm
5
 03:37     22:58    Daglengte: 19:21 Zaterdag 28 Mei
02:00
38.3 mm
7
08:00
29.7 mm
8
14:00
34.3 mm
8
20:00
43.8 mm
6
 03:34     23:01    Daglengte: 19:27 Zondag 29 Mei
02:00
36.6 mm
6
Locatie info
Region: Trøndelag
Latitude: 63.4310°N
Longitude: 10.3921°E
18 masl
Postcode: 7011
Temp/Neerslag /Baro Onweer/Dauwpunt
    Temp Baro 1h Neerslag Dauwpunt Wind UV Bewolking  
 03:42     22:52    Daglengte: 19:10 Vandaag
07:00
Voelt als: 7.8°
997.7 hPa
14%
5.8°
1
Windvlaag: 1.3 m/s
59%
08:00
997.4 hPa
14%
5.7°
1
Windvlaag: 0.4 m/s
16%
09:00
11°
997.2 hPa
14%
5.8°
1
Windvlaag: 0 m/s
12%
10:00
12°
997.3 hPa
14%
6.1°
1
Windvlaag: -1.3 m/s
7%
11:00
13°
997.5 hPa
15%
6.4°
2
Windvlaag: -3.5 m/s
11%
12:00
14°
998.0 hPa
30%
6.7°
2
Windvlaag: -3.3 m/s
6%
13:00
15°
998.2 hPa
72%
6.5°
3
Windvlaag: -2.6 m/s
7%
14:00
15°
998.7 hPa
78%
7.0°
4
Windvlaag: -2.8 m/s
27%
15:00
14°
999.4 hPa
76%
6.2°
5
Windvlaag: -3.4 m/s
60%
16:00
13°
1000.0 hPa
30%
6.3°
5
Windvlaag: -3.5 m/s
64%
17:00
12°
1000.5 hPa
23%
7.3°
4
Windvlaag: -3.8 m/s
75%
18:00
11°
1001.1 hPa
22%
9.5°
6
Windvlaag: 1.9 m/s
69%
19:00
11°
1001.6 hPa
19%
8.7°
6
Windvlaag: 2.5 m/s
86%
20:00
10°
Voelt als: 6.9°
1001.8 hPa
14%
8.0°
5
Windvlaag: 3 m/s
86%
21:00
Voelt als: 6.5°
1002.0 hPa
14%
7.4°
5
Windvlaag: 2.7 m/s
85%
22:00
Voelt als: 6.4°
1002.3 hPa
14%
7.0°
4
Windvlaag: 2.1 m/s
86%
23:00
Voelt als: 6.4°
1002.5 hPa
17%
6.7°
3
Windvlaag: 1.7 m/s
81%
 03:39     22:55    Daglengte: 19:16 Morgen
00:00
Voelt als: 6.1°
1002.6 hPa
21%
6.6°
3
Windvlaag: 2.7 m/s
82%
01:00
Voelt als: 5.9°
1002.6 hPa
22%
6.4°
3
Windvlaag: 2.6 m/s
79%
02:00
Voelt als: 5.8°
1002.5 hPa
23%
6.2°
3
Windvlaag: 2.6 m/s
64%
03:00
Voelt als: 5.7°
1002.2 hPa
66%
6.0°
3
Windvlaag: 2.7 m/s
59%
04:00
Voelt als: 5.7°
1002.2 hPa
26%
5.9°
3
Windvlaag: 2.5 m/s
76%
05:00
Voelt als: 5.5°
1002.2 hPa
32%
6.0°
3
Windvlaag: 2.1 m/s
81%
06:00
Voelt als: 5.6°
1002.2 hPa
32%
6.2°
3
Windvlaag: 2.1 m/s
61%
07:00
Voelt als: 5.6°
1002.2 hPa
74%
6.4°
3
Windvlaag: 1.8 m/s
81%
08:00
Voelt als: 5.7°
1002.2 hPa
62%
6.5°
3
Windvlaag: 1 m/s
57%
09:00
Voelt als: 6.2°
1002.4 hPa
59%
6.5°
4
Windvlaag: -0.3 m/s
69%
10:00
Voelt als: 6.7°
1002.6 hPa
60%
6.2°
4
Windvlaag: -1.3 m/s
86%
11:00
Voelt als: 6.4°
1002.8 hPa
59%
6.1°
5
Windvlaag: -2 m/s
79%
12:00
Voelt als: 6.2°
1003.0 hPa
25%
6.2°
5
Windvlaag: -1.9 m/s
71%
13:00
Voelt als: 6.2°
1003.2 hPa
32%
6.0°
5
Windvlaag: -1.8 m/s
86%
14:00
Voelt als: 6.2°
1003.4 hPa
79%
6.5°
5
Windvlaag: -1.3 m/s
86%
15:00
Voelt als: 6.1°
1003.7 hPa
80%
6.9°
5
Windvlaag: -0.7 m/s
81%
16:00
Voelt als: 6.1°
1004.0 hPa
42%
7.2°
5
Windvlaag: -1.3 m/s
81%
17:00
Voelt als: 5.8°
1004.2 hPa
81%
7.2°
5
Windvlaag: -0.9 m/s
82%
18:00
Voelt als: 5.5°
1004.3 hPa 3.6 mm
82%
7.4°
5
Windvlaag: -0.9 m/s
79%
19:00
Voelt als: 5.3°
1004.5 hPa 3.9 mm
82%
7.5°
5
Windvlaag: -0.4 m/s
84%
20:00
Voelt als: 5.0°
1004.6 hPa 4.1 mm
82%
7.6°
5
Windvlaag: -0.6 m/s
86%
21:00
Voelt als: 5.0°
1004.8 hPa 4.4 mm
82%
7.7°
6
Windvlaag: 2.3 m/s
86%
22:00
Voelt als: 4.9°
1004.9 hPa 4.7 mm
82%
7.8°
6
Windvlaag: 2.7 m/s
84%
23:00
Voelt als: 4.8°
1004.0 hPa 8.2 mm
98%
7.9°
6
Windvlaag: 1.2 m/s
100%
 03:37     22:58    Daglengte: 19:21 Zaterdag 28 Mei
00:00
Voelt als: 4.6°
1004.2 hPa 7.4 mm
92%
8.0°
6
Windvlaag: -1.3 m/s
100%
01:00
Voelt als: 4.2°
1004.2 hPa 6.6 mm
49%
7.8°
7
Windvlaag: -2.2 m/s
100%
02:00
Voelt als: 4.0°
1004.4 hPa 7.0 mm
99%
7.7°
7
Windvlaag: -2.7 m/s
100%
03:00
Voelt als: 3.6°
1004.6 hPa 7.3 mm
100%
7.5°
7
Windvlaag: -1.9 m/s
100%
04:00
Voelt als: 3.4°
1004.9 hPa 4.5 mm
100%
7.0°
8
Windvlaag: -3.4 m/s
100%
05:00
Voelt als: 3.3°
1005.1 hPa 4.3 mm
100%
6.7°
8
Windvlaag: -3.2 m/s
98%
06:00
Voelt als: 3.4°
1005.0 hPa 4.4 mm
100%
6.5°
8
Windvlaag: -2.9 m/s
100%
07:00
Voelt als: 3.4°
1005.3 hPa 4.7 mm
100%
6.3°
8
Windvlaag: -3.3 m/s
100%
08:00
Voelt als: 3.3°
1005.7 hPa 4.5 mm
100%
6.1°
8
Windvlaag: -2.5 m/s
100%
09:00
Voelt als: 3.3°
1006.4 hPa 4.5 mm
100%
6.1°
8
Windvlaag: -2.3 m/s
100%
10:00
Voelt als: 3.1°
1007.1 hPa 4.3 mm
100%
6.1°
8
Windvlaag: -2.4 m/s
100%
11:00
Voelt als: 3.2°
1007.6 hPa 4.5 mm
100%
6.2°
9
Windvlaag: -2.3 m/s
100%
12:00
Voelt als: 3.8°
1008.0 hPa 4.6 mm
100%
6.3°
8
Windvlaag: -2.3 m/s
100%
13:00
Voelt als: 4.0°
1008.5 hPa 8.0 mm
100%
6.4°
8
Windvlaag: -1.9 m/s
100%
14:00
Voelt als: 3.7°
1008.8 hPa 8.4 mm
100%
6.4°
8
Windvlaag: -1.9 m/s
99%
15:00
Voelt als: 4.0°
1009.3 hPa 8.9 mm
100%
6.6°
8
Windvlaag: -2.2 m/s
94%
16:00
Voelt als: 4.0°
1009.5 hPa 9.5 mm
100%
6.8°
8
Windvlaag: -2.2 m/s
98%
17:00
Voelt als: 3.6°
1009.8 hPa 6.1 mm
100%
6.2°
8
Windvlaag: -2.1 m/s
100%
18:00
Voelt als: 3.2°
1010.0 hPa 6.4 mm
100%
5.7°
8
Windvlaag: -1.4 m/s
99%
19:00
Voelt als: 3.3°
1010.1 hPa 6.5 mm
100%
5.5°
7
Windvlaag: -0.3 m/s
100%
20:00
Voelt als: 3.4°
1010.2 hPa 6.5 mm
100%
5.8°
6
Windvlaag: -0.3 m/s
100%
21:00
Voelt als: 3.2°
1010.1 hPa 6.6 mm
100%
5.8°
6
Windvlaag: 0 m/s
100%
22:00
Voelt als: 2.9°
1010.2 hPa 11.0 mm
100%
5.5°
6
Windvlaag: 0.8 m/s
99%
23:00
Voelt als: 2.7°
1010.2 hPa 6.9 mm
100%
5.3°
6
Windvlaag: -0.3 m/s
100%
 03:34     23:01    Daglengte: 19:27 Zondag 29 Mei
00:00
Voelt als: 3.1°
1008.8 hPa
100%
5.7°
7
Windvlaag: 11.4 m/s
89%
01:00
Voelt als: 3.4°
1008.6 hPa
100%
6.0°
6
Windvlaag: 10.7 m/s
89%
02:00
Voelt als: 3.6°
1008.3 hPa 12.1 mm
100%
6.2°
6
Windvlaag: 8 m/s
99%
03:00
Voelt als: 3.9°
1008.2 hPa 12.7 mm
100%
6.3°
5
Windvlaag: 10.1 m/s
100%
04:00
Voelt als: 4.0°
1008.1 hPa 12.8 mm
100%
6.5°
5
Windvlaag: 8.3 m/s
93%
05:00
Voelt als: 4.1°
1007.9 hPa 12.5 mm
100%
6.7°
5
Windvlaag: 8 m/s
98%
06:00
Voelt als: 4.5°
1007.8 hPa 12.7 mm
100%
6.6°
5
Windvlaag: 5.8 m/s
97%
Temp/Neerslag /Baro Onweer/Dauwpunt
    Temp Baro Neerslag Dauwpunt Wind Bewolking  
 03:42     22:52    Daglengte: 19:10 Vandaag
08:00
997.4 hPa   5.7°
1
16%
11:00
13°
997.5 hPa   6.4°
2
11%
14:00
15°
998.7 hPa   7.0°
4
27%
17:00
12°
1000.5 hPa   7.3°
4
75%
20:00
10°
Voelt als: 6.9°
1001.8 hPa   8.0°
5
86%
23:00
Voelt als: 6.4°
1002.5 hPa   6.7°
3
81%
 03:39     22:55    Daglengte: 19:16 Morgen
02:00
Voelt als: 5.8°
1002.5 hPa   6.2°
3
64%
05:00
Voelt als: 5.5°
1002.2 hPa   6.0°
3
81%
08:00
Voelt als: 5.7°
1002.2 hPa   6.5°
3
57%
11:00
Voelt als: 6.4°
1002.8 hPa   6.1°
5
79%
14:00
Voelt als: 6.2°
1003.4 hPa   6.5°
5
86%
17:00
Voelt als: 5.8°
1004.2 hPa   7.2°
5
82%
20:00
Voelt als: 5.0°
1004.6 hPa 11.6 mm 7.6°
5
86%
23:00
Voelt als: 4.8°
1004.0 hPa 17.3 mm 7.9°
6
100%
 03:37     22:58    Daglengte: 19:21 Zaterdag 28 Mei
02:00
Voelt als: 4.0°
1004.4 hPa 21.0 mm 7.7°
7
100%
05:00
Voelt als: 3.3°
1005.1 hPa 16.1 mm 6.7°
8
98%
08:00
Voelt als: 3.3°
1005.7 hPa 13.6 mm 6.1°
8
100%
11:00
Voelt als: 3.2°
1007.6 hPa 13.3 mm 6.2°
9
100%
14:00
Voelt als: 3.7°
1008.8 hPa 21.0 mm 6.4°
8
99%
17:00
Voelt als: 3.6°
1009.8 hPa 24.4 mm 6.2°
8
100%
20:00
Voelt als: 3.4°
1010.2 hPa 19.4 mm 5.8°
6
100%
23:00
Voelt als: 2.7°
1010.2 hPa 24.6 mm 5.3°
6
100%
 03:34     23:01    Daglengte: 19:27 Zondag 29 Mei
02:00
Voelt als: 3.6°
1008.3 hPa 12.1 mm 6.2°
6
99%
05:00
Voelt als: 4.1°
1007.9 hPa 38.0 mm 6.7°
5
98%
08:00
Voelt als: 5.4°
1008.1 hPa 38.6 mm 5.5°
4
85%
11:00
Voelt als: 4.6°
1011.1 hPa 30.3 mm 5.3°
4
1%
14:00
Voelt als: 6.1°
1011.9 hPa 30.4 mm 5.5°
5
1%
17:00
10°
Voelt als: 7.4°
1012.4 hPa 30.5 mm 6.0°
4
1%
20:00
Voelt als: 7.8°
1012.7 hPa 30.5 mm 6.6°
2
1%
23:00
Voelt als: 7.6°
1013.3 hPa 30.5 mm 6.7°
2
1%
 03:32     23:03    Daglengte: 19:31 Maandag 30 Mei
02:00
1013.2 hPa 30.5 mm 6.6°
1
1%
05:00
1012.9 hPa 30.5 mm 6.5°
1
1%
08:00
Voelt als: 9.1°
1012.5 hPa 30.5 mm 7.1°
1
1%
11:00
11°
1011.7 hPa 30.6 mm 8.1°
0
1%
14:00
11°
1010.5 hPa 30.8 mm 8.8°
0
1%
17:00
11°
1009.8 hPa 31.2 mm 8.8°
2
1%
20:00
11°
1009.5 hPa 31.6 mm 8.6°
2
1%
23:00
10°
1009.5 hPa 32.3 mm 8.2°
2
1%
 03:30     23:06    Daglengte: 19:36 Dinsdag 31 Mei
02:00
Voelt als: 7.6°
1009.5 hPa 33.9 mm 8.1°
3
1%
05:00
Voelt als: 7.6°
1009.2 hPa 35.1 mm 8.0°
3
1%
08:00
11°
1009.6 hPa 35.1 mm 8.6°
3
1%
11:00
14°
1009.6 hPa 35.1 mm 8.2°
4
1%
14:00
16°
1009.3 hPa 35.1 mm 6.9°
5
1%
17:00
14°
1010.1 hPa 35.2 mm 7.9°
1
1%
20:00
12°
1011.4 hPa 35.3 mm 9.2°
2
1%
23:00
10°
Voelt als: 9.0°
1013.0 hPa 35.5 mm 8.2°
2
0%
 03:28     23:08    Daglengte: 19:40 Woensdag 01 Jun
02:00
1013.3 hPa 35.5 mm 7.4°
0
0%
05:00
Voelt als: 8.7°
1013.7 hPa 35.5 mm 6.8°
0
0%
08:00
11°
1013.9 hPa 35.5 mm 8.1°
1
0%
11:00
13°
1013.4 hPa 35.5 mm 8.6°
1
0%
14:00
14°
1013.6 hPa 35.6 mm 9.4°
3
0%
17:00
13°
1014.8 hPa 36.1 mm 9.0°
5
1%
20:00
11°
1016.3 hPa 36.2 mm 8.4°
5
1%
23:00
10°
Voelt als: 7.8°
1017.4 hPa 36.2 mm 7.7°
4
1%
 03:26     23:11    Daglengte: 19:45 Donderdag 02 Jun
02:00
10°
Voelt als: 7.6°
1017.9 hPa 36.2 mm 7.4°
3
1%
05:00
Voelt als: 7.3°
1018.1 hPa   7.5°
4
1%
08:00
10°
1018.1 hPa 72.4 mm 8.0°
6
1%
14:00
12°
1019.0 hPa 72.5 mm 7.8°
7
1%
20:00
11°
1019.9 hPa 72.9 mm 7.7°
4
1%
 03:24     23:13    Daglengte: 19:49 Vrijdag 03 Jun
02:00
Voelt als: 8.0°
1020.8 hPa 78.2 mm 8.2°
2
1%
08:00
Voelt als: 9.1°
1021.2 hPa 83.8 mm 8.4°
1
1%
14:00
11°
1022.5 hPa 84.1 mm 9.2°
1
1%
20:00
13°
1022.3 hPa 84.1 mm 8.7°
2
1%
 03:22     23:16    Daglengte: 19:54 Zaterdag 04 Jun
02:00
Voelt als: 9.2°
1023.9 hPa 84.1 mm 8.2°
1
0%
08:00
12°
1024.2 hPa 84.1 mm 10.0°
1
0%
14:00
15°
1023.0 hPa 84.1 mm 11.8°
1
0%
20:00
16°
1022.3 hPa 84.1 mm 11.7°
2
0%
 03:20     23:18    Daglengte: 19:58 Zondag 05 Jun
02:00
1017.9 hPa 0.4 mm 6.1°
0
72%
08:00
11°
1017.2 hPa 0.3 mm 6.5°
0
69%
14:00
16°
1016.6 hPa 0.3 mm 6.6°
1
69%
20:00
13°
1016.2 hPa 0.5 mm 7.2°
2
67%
 03:18     23:20    Daglengte: 20:02 Maandag 06 Jun
02:00
Voelt als: 8.3°
1016.7 hPa 0.5 mm 6.1°
1
62%
08:00
12°
1015.8 hPa 0.7 mm 7.1°
1
64%
14:00
16°
1015.0 hPa 0.7 mm 7.4°
2
65%
20:00
13°
1014.6 hPa 0.6 mm 7.5°
2
64%
 03:17     23:22    Daglengte: 20:05 Dinsdag 07 Jun
02:00
Voelt als: 8.3°
1015.3 hPa 0.2 mm 6.3°
1
67%
08:00
12°
1014.4 hPa 0.2 mm 7.0°
0
73%
14:00
16°
1012.9 hPa 0.4 mm 7.0°
1
75%
20:00
13°
1012.3 hPa 0.8 mm 7.5°
2
78%
 03:15     23:24    Daglengte: 20:09 Woensdag 08 Jun
02:00
Voelt als: 8.5°
1012.7 hPa 0.9 mm 6.6°
1
76%
08:00
11°
1012.3 hPa 0.5 mm 6.8°
0
80%
14:00
15°
1011.9 hPa 0.7 mm 7.3°
1
77%
20:00
14°
1011.4 hPa 0.8 mm 7.5°
1
69%
 03:14     23:26    Daglengte: 20:12 Donderdag 09 Jun
02:00
Voelt als: 8.8°
1011.5 hPa 1.3 mm 6.8°
0
60%
08:00
12°
1010.9 hPa 0.3 mm 7.8°
0
64%
14:00
15°
1010.4 hPa 1.5 mm 7.8°
0
71%
20:00
14°
1010.2 hPa 0.5 mm 8.0°
1
75%
 03:13     23:28    Daglengte: 20:15 Vrijdag 10 Jun
02:00
1010.7 hPa 0.8 mm 7.2°
0
68%
  CAPE Lifted Index Hail Supercell Tornado SRH 3km CL BTM PRES CL TOP PRES Swiss DWD icon SMHI TS
 03:42     22:52    Daglengte: 19:10 Vandaag
07:00 0 J/kg 1.0 K 0 % 0 % 0 % 0 m²/s² 0 0 3.37 3
08:00 0 J/kg 1.3 K 0 % 0 % 0 % 0 m²/s² 0 0 3.97 0
09:00 0 J/kg 1.5 K 0 % 0 % 0 % 0 m²/s² 0 0 3.87 0
10:00 0 J/kg 1.3 K 0 % 0 % 0 % 0 m²/s² 0 0 2.98 0
11:00 0 J/kg 0.6 K 0 % 0 % 0 % 0 m²/s² 0 0 1.77 0
12:00 20 J/kg -0.2 K 0 % 0 % 0 % 0 m²/s² 0 0 0.76 0
13:00 106 J/kg -1.2 K 0 % 0 % 0 % 0 m²/s² 0 0 -0.15 0
14:00 137 J/kg -1.3 K 0 % 0 % 0 % 0 m²/s² 0 0 -0.1 2
15:00 166 J/kg -1.1 K 0 % 0 % 0 % 0 m²/s² 0 0 -0.53 3
16:00 119 J/kg -0.6 K 0 % 0 % 0 % 0 m²/s² 0 0 0.18 3
17:00 143 J/kg -0.6 K 0 % 0 % 0 % 0 m²/s² 0 0 0.09 3
18:00 5 J/kg 0.2 K 0 % 0 % 0 % 0 m²/s² 0 0 0.53 3
19:00 20 J/kg 2.4 K 0 % 0 % 0 % 0 m²/s² 0 0 2.85 3
20:00 4 J/kg 2.7 K 0 % 0 % 0 % 0 m²/s² 0 0 3.24 3
21:00 3 J/kg 3.5 K 0 % 0 % 0 % 0 m²/s² 0 0 3.86 3
22:00 0 J/kg 3.4 K 0 % 0 % 0 % 0 m²/s² 0 0 3.76 3
23:00 1 J/kg 3.7 K 0 % 0 % 0 % 0 m²/s² 0 0 4.06 3
 03:39     22:55    Daglengte: 19:16 Morgen
00:00 7 J/kg 4.0 K 0 % 0 % 0 % 0 m²/s² 0 0 4.48 3
01:00 10 J/kg 4.4 K 0 % 0 % 0 % 0 m²/s² 0 0 4.76 3
02:00 8 J/kg 4.8 K 0 % 0 % 0 % 0 m²/s² 0 0 5.19 3
03:00 4 J/kg 4.9 K 0 % 0 % 0 % 0 m²/s² 0 0 5.38 3
04:00 4 J/kg 4.7 K 0 % 0 % 0 % 0 m²/s² 0 0 5.06 3
05:00 7 J/kg 4.9 K 0 % 0 % 0 % 0 m²/s² 0 0 5.26 3
06:00 6 J/kg 4.5 K 0 % 0 % 0 % 0 m²/s² 0 0 4.89 3
07:00 5 J/kg 4.4 K 0 % 0 % 0 % 0 m²/s² 0 0 4.79 3
08:00 2 J/kg 4.0 K 0 % 0 % 0 % 0 m²/s² 0 0 4.48 3
09:00 0 J/kg 4.3 K 0 % 0 % 0 % 0 m²/s² 0 0 4.66 3
10:00 0 J/kg 4.3 K 0 % 0 % 0 % 0 m²/s² 0 0 4.9 3
11:00 11 J/kg 4.4 K 0 % 0 % 0 % 0 m²/s² 0 0 5.36 3
12:00 15 J/kg 3.9 K 0 % 0 % 0 % 0 m²/s² 0 0 4.5 3
13:00 9 J/kg 3.5 K 0 % 0 % 0 % 0 m²/s² 0 0 3.95 3
14:00 8 J/kg 3.4 K 0 % 0 % 0 % 0 m²/s² 0 0 3.73 3
15:00 10 J/kg 3.6 K 0 % 0 % 0 % 0 m²/s² 0 0 3.87 3
16:00 9 J/kg 3.9 K 0 % 0 % 0 % 0 m²/s² 0 0 4.11 3
17:00 8 J/kg 4.1 K 0 % 0 % 0 % 0 m²/s² 0 0 4.31 3
18:00 6 J/kg 3.2 K 0 % 0 % 0 % 0 m²/s² 0 0 3.53 61
19:00 6 J/kg 2.6 K 0 % 0 % 0 % 0 m²/s² 0 0 2.96 61
20:00 5 J/kg 2.7 K 0 % 0 % 0 % 0 m²/s² 0 0 3.03 61
21:00 3 J/kg 3.2 K 0 % 0 % 0 % 0 m²/s² 0 0 3.53 61
22:00 3 J/kg 3.6 K 0 % 0 % 0 % 0 m²/s² 0 0 4.05 61
23:00 2 J/kg 4.3 K 0 % 0 % 0 % 0 m²/s² 0 0 4.78 3
 03:37     22:58    Daglengte: 19:21 Zaterdag 28 Mei
00:00 3 J/kg 4.9 K 0 % 0 % 0 % 0 m²/s² 0 0 6.43 3
01:00 3 J/kg 5.7 K 0 % 0 % 0 % 0 m²/s² 0 0 8.04 3
02:00 3 J/kg 7.0 K 0 % 0 % 0 % 0 m²/s² 0 0 7.78 3
03:00 4 J/kg 5.7 K 0 % 0 % 0 % 0 m²/s² 0 0 6.87 3
04:00 4 J/kg 5.3 K 0 % 0 % 0 % 0 m²/s² 0 0 7.13 61
05:00 5 J/kg 5.4 K 0 % 0 % 0 % 0 m²/s² 0 0 8.31 61
06:00 6 J/kg 6.2 K 0 % 0 % 0 % 0 m²/s² 0 0 8.75 61
07:00 13 J/kg 8.1 K 0 % 0 % 0 % 0 m²/s² 0 0 10.59 61
08:00 7 J/kg 8.9 K 0 % 0 % 0 % 0 m²/s² 0 0 10.97 61
09:00 9 J/kg 9.9 K 0 % 0 % 0 % 0 m²/s² 0 0 11.28 61
10:00 11 J/kg 9.9 K 0 % 0 % 0 % 0 m²/s² 0 0 10.44 61
11:00 15 J/kg 10.0 K 0 % 0 % 0 % 0 m²/s² 0 0 10.45 61
12:00 27 J/kg 9.3 K 0 % 0 % 0 % 0 m²/s² 0 0 9.66 61
13:00 31 J/kg 8.7 K 0 % 0 % 0 % 0 m²/s² 0 0 9.03 61
14:00 29 J/kg 8.6 K 0 % 0 % 0 % 0 m²/s² 0 0 8.93 61
15:00 25 J/kg 8.3 K 0 % 0 % 0 % 0 m²/s² 0 0 8.63 61
16:00 25 J/kg 8.3 K 0 % 0 % 0 % 0 m²/s² 0 0 8.63 61
17:00 20 J/kg 8.7 K 0 % 0 % 0 % 0 m²/s² 0 0 9.3 61
18:00 16 J/kg 9.0 K 0 % 0 % 0 % 0 m²/s² 0 0 10.2 61
19:00 21 J/kg 8.9 K 0 % 0 % 0 % 0 m²/s² 0 0 9.38 61
20:00 23 J/kg 8.6 K 0 % 0 % 0 % 0 m²/s² 0 0 8.96 61
21:00 26 J/kg 8.2 K 0 % 0 % 0 % 0 m²/s² 0 0 8.56 61
22:00 20 J/kg 7.9 K 0 % 0 % 0 % 0 m²/s² 0 0 8.26 61
23:00 16 J/kg 7.5 K 0 % 0 % 0 % 0 m²/s² 0 0 7.89 61
 03:34     23:01    Daglengte: 19:27 Zondag 29 Mei
00:00 12 J/kg 6.7 K 0 % 0 % 0 % 0 m²/s² 0 0 7.09 3
01:00 10 J/kg 5.8 K 0 % 0 % 0 % 0 m²/s² 0 0 6.25 3
02:00 20 J/kg 5.9 K 0 % 0 % 0 % 0 m²/s² 0 0 6.32 61
03:00 2 J/kg 5.2 K 0 % 0 % 0 % 0 m²/s² 0 0 6.07 61
04:00 12 J/kg 4.7 K 0 % 0 % 0 % 0 m²/s² 0 0 6.2 61
05:00 42 J/kg 4.0 K 0 % 0 % 0 % 0 m²/s² 0 0 5.59 61
06:00 70 J/kg 3.4 K 0 % 0 % 0 % 0 m²/s² 0 0 5.29 61
Temp Baro Wind Neerslag
  EWN Forecast EWN WRFDA DWD ICON FMI HIRLAM MET Norway GFS
 03:42     22:52    Daglengte: 19:10 Vandaag
08:00 9.5° 997.4 hPa 1.1 m/s 0.0 mm 9.3° 994.6 hPa 0.5 m/s 0.1 mm 10.2° 998.2 hPa 1.5 m/s -2.0 mm 9.6° 997.4 hPa 0.8 m/s 0.0 mm 9.5° 997.1 hPa 1.2 m/s
11:00 13.2° 997.5 hPa 2.3 m/s 0.0 mm 12.1° 994.7 hPa 2.2 m/s 0.1 mm 13.4° 998.0 hPa 2.1 m/s 0.0 mm 13.7° 996.9 hPa 2.5 m/s 0.0 mm 11.6° 997.5 hPa 0.5 m/s
14:00 15.2° 998.7 hPa 4.5 m/s 0.0 mm 14.6° 994.3 hPa 2.6 m/s 0.1 mm 15.4° 999.4 hPa 6.6 m/s 0.1 mm 16.2° 997.1 hPa 2.8 m/s 0.0 mm 12.8° 997.9 hPa 3.4 m/s
17:00 12.4° 1000.5 hPa 4.0 m/s 0.0 mm 12.1° 996.0 hPa 4.2 m/s 2.2 mm 12.0° 1001.9 hPa 7.0 m/s 0.0 mm 14.9° 998.1 hPa 2.1 m/s 0.0 mm 10.4° 1000.3 hPa 9.1 m/s
20:00 9.6° 1001.8 hPa 5.4 m/s 0.0 mm 9.5° 998.1 hPa 8.3 m/s 11.4 mm 10.4° 1002.2 hPa 5.2 m/s 0.0 mm 9.5° 1001.1 hPa 6.0 m/s 0.0 mm 9.4° 1001.6 hPa 7.6 m/s
23:00 8.3° 1002.5 hPa 3.1 m/s 0.0 mm 8.2° 998.6 hPa 5.9 m/s 14.7 mm 8.8° 1002.8 hPa 3.0 m/s 0.0 mm 8.3° 1002.8 hPa 3.2 m/s 0.0 mm 8.6° 1002.2 hPa 5.1 m/s
 03:39     22:55    Daglengte: 19:16 Morgen
02:00 7.6° 1002.5 hPa 2.7 m/s 0.0 mm 7.8° 998.5 hPa 4.7 m/s 17.0 mm 8.4° 1002.3 hPa 2.2 m/s 0.0 mm 7.4° 1003.2 hPa 3.1 m/s 0.0 mm 8.0° 1001.9 hPa 4.2 m/s
05:00 7.3° 1002.2 hPa 2.7 m/s 0.0 mm 7.5° 998.4 hPa 4.3 m/s 19.3 mm 8.2° 1002.3 hPa 2.9 m/s 0.0 mm 7.3° 1003.0 hPa 2.6 m/s 0.0 mm 8.0° 1001.6 hPa 4.6 m/s
08:00 7.7° 1002.2 hPa 3.2 m/s 0.0 mm 7.8° 998.3 hPa 7.1 m/s 23.6 mm 8.6° 1001.9 hPa 5.0 m/s 0.0 mm 7.6° 1003.4 hPa 1.7 m/s 0.0 mm 8.4° 1001.5 hPa 6.2 m/s
11:00 9.0° 1002.8 hPa 4.8 m/s 0.0 mm 8.1° 998.9 hPa 5.7 m/s 24.8 mm 9.9° 1002.7 hPa 6.1 m/s 0.1 mm 9.2° 1004.2 hPa 3.5 m/s 0.0 mm 8.0° 1002.0 hPa 7.2 m/s
14:00 9.0° 1003.4 hPa 5.3 m/s 0.0 mm 8.2° 999.5 hPa 6.8 m/s 26.3 mm 10.3° 1002.8 hPa 7.6 m/s 0.0 mm 9.1° 1005.0 hPa 4.5 m/s 0.0 mm 7.8° 1002.0 hPa 8.2 m/s
17:00 8.7° 1004.2 hPa 5.4 m/s 0.0 mm 8.3° 1000.0 hPa 6.4 m/s 38.4 mm 9.6° 1003.6 hPa 7.0 m/s 0.1 mm 8.7° 1005.6 hPa 5.0 m/s 0.0 mm 8.2° 1002.8 hPa 5.7 m/s
20:00 8.1° 1004.6 hPa 5.5 m/s 11.6 mm 8.3° 1000.6 hPa 6.0 m/s 52.9 mm 8.9° 1003.6 hPa 8.1 m/s 1.7 mm 8.1° 1005.7 hPa 5.1 m/s 0.0 mm 8.2° 1003.9 hPa 6.9 m/s
23:00 7.9° 1004.0 hPa 5.6 m/s 17.3 mm 7.8° 1001.2 hPa 5.6 m/s 57.1 mm 8.8° 1004.1 hPa 6.8 m/s 0.9 mm 8.2° 1004.5 hPa 6.6 m/s
 03:37     22:58    Daglengte: 19:21 Zaterdag 28 Mei
02:00 7.7° 1004.4 hPa 7.1 m/s 21.0 mm 7.0° 1002.0 hPa 7.4 m/s 58.5 mm 8.1° 1004.2 hPa 7.3 m/s 0.0 mm 7.9° 1005.3 hPa 7.2 m/s
05:00 7.3° 1005.1 hPa 7.6 m/s 16.1 mm 7.1° 1002.8 hPa 10.1 m/s 58.6 mm 8.2° 1004.7 hPa 7.4 m/s 0.8 mm 7.6° 1005.9 hPa 9.2 m/s
08:00 7.3° 1005.7 hPa 7.9 m/s 13.6 mm 7.1° 1003.8 hPa 10.2 m/s 59.1 mm 8.5° 1005.0 hPa 7.8 m/s 2.6 mm 7.5° 1007.2 hPa 8.7 m/s
11:00 7.4° 1007.6 hPa 8.5 m/s 13.3 mm 7.2° 1004.9 hPa 9.4 m/s 60.4 mm 8.4° 1007.1 hPa 8.9 m/s 2.1 mm 7.2° 1007.8 hPa 9.4 m/s
14:00 7.8° 1008.8 hPa 8.2 m/s 21.0 mm 7.6° 1005.6 hPa 9.8 m/s 66.8 mm 8.4° 1008.4 hPa 8.3 m/s 2.6 mm 7.1° 1008.4 hPa 10.1 m/s
17:00 7.6° 1009.8 hPa 7.7 m/s 24.4 mm 7.0° 1006.5 hPa 9.2 m/s 80.3 mm 8.2° 1009.4 hPa 7.8 m/s 2.3 mm 6.9° 1009.1 hPa 9.8 m/s
20:00 7.0° 1010.2 hPa 6.2 m/s 19.4 mm 6.9° 1006.4 hPa 7.2 m/s 88.5 mm 7.5° 1009.8 hPa 6.1 m/s 3.0 mm 6.9° 1009.3 hPa 9.6 m/s
23:00 6.5° 1010.2 hPa 6.5 m/s 24.6 mm 6.4° 1005.8 hPa 7.4 m/s 97.8 mm 7.0° 1009.8 hPa 6.4 m/s 1.0 mm 6.8° 1009.4 hPa 8.5 m/s
 03:34     23:01    Daglengte: 19:27 Zondag 29 Mei
02:00 7.1° 1008.3 hPa 5.9 m/s 12.1 mm 6.5° 1005.1 hPa 5.2 m/s 105.8 mm 7.3° 1009.1 hPa 6.1 m/s 0.2 mm 6.8° 1008.9 hPa 7.2 m/s
05:00 7.2° 1007.9 hPa 5.0 m/s 38.0 mm 6.8° 1004.9 hPa 4.9 m/s 110.3 mm 7.3° 1008.7 hPa 5.0 m/s 1.8 mm 6.7° 1009.4 hPa 6.8 m/s
08:00 7.9° 1008.1 hPa 4.0 m/s 38.6 mm 8.6° 1005.5 hPa 4.6 m/s 112.3 mm 7.7° 1008.8 hPa 3.9 m/s 1.7 mm 6.9° 1010.2 hPa 4.8 m/s
11:00 7.4° 1011.1 hPa 4.4 m/s 30.3 mm 7.4° 1011.1 hPa 4.4 m/s 30.3 mm
14:00 8.7° 1011.9 hPa 4.7 m/s 30.4 mm 8.7° 1011.9 hPa 4.7 m/s 30.4 mm
17:00 9.6° 1012.4 hPa 4.2 m/s 30.5 mm 9.6° 1012.4 hPa 4.2 m/s 30.5 mm
20:00 9.0° 1012.7 hPa 2.3 m/s 30.5 mm 9.0° 1012.7 hPa 2.3 m/s 30.5 mm
23:00 8.4° 1013.3 hPa 1.7 m/s 30.5 mm 8.4° 1013.3 hPa 1.7 m/s 30.5 mm
 03:32     23:03    Daglengte: 19:31 Maandag 30 Mei
02:00 8.2° 1013.2 hPa 1.0 m/s 30.5 mm 8.2° 1013.2 hPa 1.0 m/s 30.5 mm
05:00 8.1° 1012.9 hPa 0.5 m/s 30.5 mm 8.1° 1012.9 hPa 0.5 m/s 30.5 mm
08:00 9.1° 1012.5 hPa 1.1 m/s 30.5 mm 9.1° 1012.5 hPa 1.1 m/s 30.5 mm
11:00 10.8° 1011.7 hPa 0.3 m/s 30.6 mm 10.8° 1011.7 hPa 0.3 m/s 30.6 mm
14:00 11.2° 1010.5 hPa 0.3 m/s 30.8 mm 11.2° 1010.5 hPa 0.3 m/s 30.8 mm
17:00 11.4° 1009.8 hPa 1.6 m/s 31.2 mm 11.4° 1009.8 hPa 1.6 m/s 31.2 mm
20:00 11.3° 1009.5 hPa 2.1 m/s 31.6 mm 11.3° 1009.5 hPa 2.1 m/s 31.6 mm
23:00 10.1° 1009.5 hPa 2.3 m/s 32.3 mm 10.1° 1009.5 hPa 2.3 m/s 32.3 mm
 03:30     23:06    Daglengte: 19:36 Dinsdag 31 Mei
02:00 9.3° 1009.5 hPa 3.1 m/s 33.9 mm 9.3° 1009.5 hPa 3.1 m/s 33.9 mm
05:00 9.3° 1009.2 hPa 3.1 m/s 35.1 mm 9.3° 1009.2 hPa 3.1 m/s 35.1 mm
08:00 10.7° 1009.6 hPa 2.6 m/s 35.1 mm 10.7° 1009.6 hPa 2.6 m/s 35.1 mm
11:00 13.7° 1009.6 hPa 4.4 m/s 35.1 mm 13.7° 1009.6 hPa 4.4 m/s 35.1 mm
14:00 15.9° 1009.3 hPa 5.1 m/s 35.1 mm 15.9° 1009.3 hPa 5.1 m/s 35.1 mm
17:00 14.1° 1010.1 hPa 1.0 m/s 35.2 mm 14.1° 1010.1 hPa 1.0 m/s 35.2 mm
20:00 12.3° 1011.4 hPa 2.3 m/s 35.3 mm 12.3° 1011.4 hPa 2.3 m/s 35.3 mm
23:00 9.6° 1013.0 hPa 1.7 m/s 35.5 mm 9.6° 1013.0 hPa 1.7 m/s 35.5 mm
 03:28     23:08    Daglengte: 19:40 Woensdag 01 Jun
02:00 8.8° 1013.3 hPa 0.3 m/s 35.5 mm 8.8° 1013.3 hPa 0.3 m/s 35.5 mm
05:00 8.7° 1013.7 hPa 0.5 m/s 35.5 mm 8.7° 1013.7 hPa 0.5 m/s 35.5 mm
08:00 11.1° 1013.9 hPa 0.7 m/s 35.5 mm 11.1° 1013.9 hPa 0.7 m/s 35.5 mm
11:00 12.9° 1013.4 hPa 1.4 m/s 35.5 mm 12.9° 1013.4 hPa 1.4 m/s 35.5 mm
14:00 13.5° 1013.6 hPa 2.6 m/s 35.6 mm 13.5° 1013.6 hPa 2.6 m/s 35.6 mm
17:00 13.1° 1014.8 hPa 5.0 m/s 36.1 mm 13.1° 1014.8 hPa 5.0 m/s 36.1 mm
20:00 11.1° 1016.3 hPa 5.4 m/s 36.2 mm 11.1° 1016.3 hPa 5.4 m/s 36.2 mm
23:00 9.8° 1017.4 hPa 4.0 m/s 36.2 mm 9.8° 1017.4 hPa 4.0 m/s 36.2 mm
 03:26     23:11    Daglengte: 19:45 Donderdag 02 Jun
02:00 9.5° 1017.9 hPa 3.5 m/s 36.2 mm 9.5° 1017.9 hPa 3.5 m/s 36.2 mm
05:00 9.4° 1018.1 hPa 3.9 m/s 36.2 mm 9.4° 1018.1 hPa 3.9 m/s 36.2 mm
08:00 10.4° 1018.1 hPa 6.1 m/s 36.2 mm 10.4° 1018.1 hPa 6.1 m/s 36.2 mm
14:00 12.3° 1019.0 hPa 7.0 m/s 36.3 mm 12.3° 1019.0 hPa 7.0 m/s 36.3 mm
20:00 10.8° 1019.9 hPa 4.1 m/s 36.6 mm 10.8° 1019.9 hPa 4.1 m/s 36.6 mm
 03:24     23:13    Daglengte: 19:49 Vrijdag 03 Jun
02:00 9.1° 1020.8 hPa 2.2 m/s 40.3 mm 9.1° 1020.8 hPa 2.2 m/s 40.3 mm
08:00 9.5° 1021.2 hPa 1.4 m/s 42.0 mm 9.5° 1021.2 hPa 1.4 m/s 42.0 mm
14:00 11.3° 1022.5 hPa 0.5 m/s 42.1 mm 11.3° 1022.5 hPa 0.5 m/s 42.1 mm
20:00 12.6° 1022.3 hPa 2.1 m/s 42.1 mm 12.6° 1022.3 hPa 2.1 m/s 42.1 mm
 03:22     23:16    Daglengte: 19:54 Zaterdag 04 Jun
02:00 9.4° 1023.9 hPa 1.3 m/s 42.1 mm 9.4° 1023.9 hPa 1.3 m/s 42.1 mm
08:00 12.3° 1024.2 hPa 1.3 m/s 42.1 mm 12.3° 1024.2 hPa 1.3 m/s 42.1 mm
14:00 15.4° 1023.0 hPa 0.8 m/s 42.1 mm 15.4° 1023.0 hPa 0.8 m/s 42.1 mm
20:00 15.9° 1022.3 hPa 1.7 m/s 42.1 mm 15.9° 1022.3 hPa 1.7 m/s 42.1 mm
 03:20     23:18    Daglengte: 19:58 Zondag 05 Jun
02:00 8.4° 1017.9 hPa 0.3 m/s 0.4 mm
08:00 11.3° 1017.2 hPa 0.3 m/s 0.3 mm
14:00 15.8° 1016.6 hPa 0.9 m/s 0.3 mm
20:00 13.1° 1016.2 hPa 1.6 m/s 0.5 mm
 03:18     23:20    Daglengte: 20:02 Maandag 06 Jun
02:00 8.3° 1016.7 hPa 0.8 m/s 0.5 mm
08:00 11.7° 1015.8 hPa 0.6 m/s 0.7 mm
14:00 16.5° 1015.0 hPa 1.5 m/s 0.7 mm
20:00 13.2° 1014.6 hPa 2.2 m/s 0.6 mm
 03:17     23:22    Daglengte: 20:05 Dinsdag 07 Jun
02:00 8.3° 1015.3 hPa 0.6 m/s 0.2 mm
08:00 11.6° 1014.4 hPa 0.3 m/s 0.2 mm